WetterOnline ( https://www.wetteronline.de )

Wetter aktuell Itzehoe

Aktuelles Wetter: Itzehoe (26m)

6-stündlich | Neueste Meldungen
Ortszeit Temperatur Wetter
Mo, 01.03. 7:00 2.1° C Nebel
Mo, 01.03. 1:00 3.7° C bedeckt
So, 28.02. 19:00 4.1° C Nebel
So, 28.02. 13:00 7.6° C bewölkt
So, 28.02. 7:00 4.5° C Sprühregen
So, 28.02. 1:00 4.4° C Nebel
Sa, 27.02. 19:00 3.9° C wolkig
Sa, 27.02. 13:00 8.2° C bedeckt
Ortszeit Temperatur Wetter
Mo, 01.03. 8:00 2.0° C Nebel
Mo, 01.03. 7:50 2.0° C Nebel
Mo, 01.03. 7:40 1.9° C bedeckt
Mo, 01.03. 7:30 2.0° C bedeckt
Mo, 01.03. 7:20 2.0° C bedeckt
Mo, 01.03. 7:10 2.1° C bedeckt
Mo, 01.03. 7:00 2.1° C Nebel
Mo, 01.03. 6:30 2.4° C Nebel
Mo, 01.03. 6:00 2.4° C Nebel
Mo, 01.03. 5:30 2.6° C Nebel
Mo, 01.03. 5:00 2.7° C Nebel
Ortszeit Relative Feuchte Sichtweite
Mo, 01.03. 7:00 100% 0.3 km
Mo, 01.03. 1:00 99% 1.5 km
So, 28.02. 19:00 100% 0.6 km
So, 28.02. 13:00 83% 40 km
So, 28.02. 7:00 99% 2.3 km
So, 28.02. 1:00 100% 0.4 km
Sa, 27.02. 19:00 97% 7 km
Sa, 27.02. 13:00 87% 30 km
Ortszeit Relative Feuchte Sichtweite
Mo, 01.03. 8:00 100% 0.8 km
Mo, 01.03. 7:50 100% -
Mo, 01.03. 7:40 99% -
Mo, 01.03. 7:30 100% 2.2 km
Mo, 01.03. 7:20 100% -
Mo, 01.03. 7:10 100% -
Mo, 01.03. 7:00 100% 0.3 km
Mo, 01.03. 6:30 100% 0.2 km
Mo, 01.03. 6:00 100% 0.3 km
Mo, 01.03. 5:30 99% 0.7 km
Mo, 01.03. 5:00 100% 0.5 km
Ortszeit Niederschlagsmenge Niederschlagsart
Mo, 01.03. 7:00 0.0 l/m2 in 12 Std. -
Mo, 01.03. 1:00 0.0 l/m2 in 6 Std. -
So, 28.02. 19:00 0.1 l/m2 in 12 Std. -
So, 28.02. 13:00 0.1 l/m2 in 6 Std. Sprühregen
So, 28.02. 7:00 0.1 l/m2 in 12 Std. Sprühregen
So, 28.02. 1:00 0.0 l/m2 in 6 Std. -
Sa, 27.02. 19:00 0.1 l/m2 in 12 Std. -
Sa, 27.02. 13:00 0.1 l/m2 in 6 Std. Sprühregen
Ortszeit Niederschlagsmenge Niederschlagsart
Mo, 01.03. 8:00 0.0 l/m2 in 1 Std. -
Mo, 01.03. 7:50 keine Meldung -
Mo, 01.03. 7:40 keine Meldung -
Mo, 01.03. 7:30 0.0 l/m2 in 1 Std. -
Mo, 01.03. 7:20 keine Meldung -
Mo, 01.03. 7:10 keine Meldung -
Mo, 01.03. 7:00 0.0 l/m2 in 1 Std. -
Mo, 01.03. 6:30 0.0 l/m2 in 1 Std. -
Mo, 01.03. 6:00 0.0 l/m2 in 1 Std. -
Mo, 01.03. 5:30 0.0 l/m2 in 1 Std. -
Mo, 01.03. 5:00 0.0 l/m2 in 1 Std. -
Ortszeit Stärke Spitze Richtung
km/h Bft. km/h Grad Sektor
Mo, 01.03. 7:00 2 1 17 250° W
Mo, 01.03. 1:00 4 1 18 300° NW
So, 28.02. 19:00 6 1 22 270° W
So, 28.02. 13:00 9 2 20 290° W
So, 28.02. 7:00 4 1 18 250° W
So, 28.02. 1:00 6 1 17 270° W
Sa, 27.02. 19:00 6 1 26 270° W
Sa, 27.02. 13:00 11 2 25 320° NW
Ortszeit Stärke Spitze Richtung
km/h Bft. km/h Grad Sektor
Mo, 01.03. 8:00 0 0 7 - -
Mo, 01.03. 7:50 2 1 - 360° N
Mo, 01.03. 7:40 2 1 - 310° NW
Mo, 01.03. 7:30 4 1 7 30° NO
Mo, 01.03. 7:20 4 1 - 30° NO
Mo, 01.03. 7:10 4 1 - 30° NO
Mo, 01.03. 7:00 2 1 7 250° W
Mo, 01.03. 6:30 2 1 6 270° W
Mo, 01.03. 6:00 4 1 18 280° W
Mo, 01.03. 5:30 11 2 18 310° NW
Mo, 01.03. 5:00 7 2 13 300° NW
Ortszeit Untergrenze Bedeckung Gattung
total tief tief mittel hoch
Mo, 01.03. 7:00 <30 m 8/8 0/8 - - -
Mo, 01.03. 1:00 30 m 8/8 8/8 - - -
So, 28.02. 19:00 30 m 8/8 8/8 - - -
So, 28.02. 13:00 300 m 7/8 7/8 - - -
So, 28.02. 7:00 60 m 7/8 7/8 - - -
So, 28.02. 1:00 30 m 8/8 8/8 - - -
Sa, 27.02. 19:00 90 m 6/8 4/8 - - -
Sa, 27.02. 13:00 360 m 8/8 8/8 - - -
Ortszeit Bedeckungsgrad in Achtel und Wolkenuntergrenze
Mo, 01.03. 8:00 8(60m)
Mo, 01.03. 7:50 8(60m)
Mo, 01.03. 7:40 8(60m)
Mo, 01.03. 7:30 8(30m)
Mo, 01.03. 7:20 8(30m)
Mo, 01.03. 7:10 8(30m)
Mo, 01.03. 7:00 8(<30m)
Mo, 01.03. 6:30 8(<30m)
Mo, 01.03. 6:00 8(30m)
Mo, 01.03. 5:30 8(30m)
Mo, 01.03. 5:00 8(30m)
Ortszeit Luftdruck NN (hPa) Tendenz (hPa in 3 Std.)
Mo, 01.03. 7:00 1036 0,0
Mo, 01.03. 1:00 1037 + 0,6
So, 28.02. 19:00 1037 - 0,3
So, 28.02. 13:00 1038 - 0,5
So, 28.02. 7:00 1038 - 0,2
So, 28.02. 1:00 1039 - 0,3
Sa, 27.02. 19:00 1039 + 0,3
Sa, 27.02. 13:00 1039 + 1,0
Ortszeit Luftdruck NN (hPa) Tendenz (hPa in 3 Std.)
Mo, 01.03. 8:00 1037 + 0,5
Mo, 01.03. 7:50 1037 keine Meldung
Mo, 01.03. 7:40 1037 keine Meldung
Mo, 01.03. 7:30 1037 + 0,4
Mo, 01.03. 7:20 1037 keine Meldung
Mo, 01.03. 7:10 1037 keine Meldung
Mo, 01.03. 7:00 1036 0,0
Mo, 01.03. 6:30 1036 - 0,1
Mo, 01.03. 6:00 1036 - 0,3
Mo, 01.03. 5:30 1036 - 0,2
Mo, 01.03. 5:00 1036 - 0,5
Ortszeit Schneehöhe (cm)
Mo, 01.03. 7:00 -
Mo, 01.03. 1:00 -
So, 28.02. 19:00 -
So, 28.02. 13:00 -
So, 28.02. 7:00 -
So, 28.02. 1:00 -
Sa, 27.02. 19:00 -
Sa, 27.02. 13:00 -
Ortszeit Schneehöhe (cm)
Mo, 01.03. 8:00 -
Mo, 01.03. 7:50 -
Mo, 01.03. 7:40 -
Mo, 01.03. 7:30 -
Mo, 01.03. 7:20 -
Mo, 01.03. 7:10 -
Mo, 01.03. 7:00 -
Mo, 01.03. 6:30 -
Mo, 01.03. 6:00 -
Mo, 01.03. 5:30 -
Mo, 01.03. 5:00 -
Link zu dieser Seite / Seite empfehlen

Das Wetter in ...